DW4360 Weather Reports


Display with metric or nautical units.
time (UTC)temp
F
wind
direction
speed
MPH
gust
MPH
rain 1hr
in
rain 24hr
in
rain mn
in
humidity
%
barometer
mb
20200330010257 56 217 2.0 0.0 0.00 0.00 0.15 61 1011.4
20200330005256 57 254 0.0 0.0 0.00 0.00 0.15 58 1011.4
20200330004254 57 187 0.0 0.0 0.00 0.00 0.15 59 1011.5
20200330003253 57 182 2.0 0.0 0.00 0.00 0.15 57 1011.5
20200330002252 58 184 7.0 0.0 0.00 0.00 0.15 59 1011.5
20200330001252 58 182 6.0 0.0 0.00 0.00 0.15 57 1011.6
20200330000250 58 144 0.0 0.0 0.00 0.00 0.15 60 1011.6
20200329235249 58 164 0.0 0.0 0.00 0.00 0.15 60 1011.7
20200329234248 58 144 2.0 0.0 0.00 0.00 0.15 60 1011.8
20200329233247 58 230 2.0 0.0 0.00 0.00 0.15 63 1011.8
20200329232246 58 209 6.0 0.0 0.00 0.00 0.15 63 1011.9
20200329231245 58 243 5.0 0.0 0.00 0.00 0.15 62 1011.9
20200329230244 57 203 6.0 0.0 0.00 0.00 0.15 63 1011.9
20200329225243 57 173 4.0 0.0 0.00 0.00 0.15 65 1011.9
20200329224242 57 193 0.0 0.0 0.00 0.00 0.15 67 1012.0
20200329223241 57 216 4.0 0.0 0.00 0.00 0.15 65 1012.1
20200329222240 57 197 4.0 0.0 0.00 0.00 0.15 68 1012.2
20200329221239 56 219 0.0 0.0 0.00 0.00 0.15 75 1012.2
20200329220238 55 208 0.0 0.0 0.00 0.00 0.15 77 1012.3
20200329215237 55 207 0.0 0.0 0.00 0.00 0.15 79 1012.4
20200329214236 55 277 0.0 0.0 0.00 0.00 0.15 78 1012.7
20200329213235 56 208 3.0 0.0 0.00 0.00 0.15 71 1012.8
20200329212234 57 227 4.0 0.0 0.00 0.00 0.15 68 1012.7
20200329211233 58 183 5.0 0.0 0.00 0.00 0.15 66 1012.7
20200329210232 58 158 4.0 0.0 0.00 0.00 0.15 71 1012.9
20200329205231 58 175 1.0 0.0 0.00 0.00 0.15 72 1013.0
20200329204230 58 215 8.0 0.0 0.00 0.00 0.15 70 1013.1
20200329203229 58 186 10.0 0.0 0.00 0.00 0.15 71 1013.1
20200329202228 57 186 0.0 0.0 0.00 0.00 0.15 77 1013.0
20200329201227 56 160 4.0 0.0 0.00 0.00 0.15 76 1013.1
20200329200226 55 221 5.0 0.0 0.00 0.00 0.15 76 1013.2
20200329195225 55 182 6.0 0.0 0.00 0.00 0.15 77 1013.3
20200329194224 54 194 2.0 0.0 0.00 0.00 0.15 80 1013.4
20200329193223 54 190 6.0 0.0 0.00 0.00 0.15 81 1013.5
20200329192222 53 219 0.0 0.0 0.00 0.00 0.15 81 1013.7
20200329191221 52 188 5.0 0.0 0.00 0.00 0.15 83 1013.7
20200329190220 52 173 8.0 0.0 0.00 0.00 0.15 84 1013.8
20200329185219 52 199 4.0 0.0 0.00 0.00 0.15 84 1013.8
20200329184218 52 202 5.0 0.0 0.00 0.00 0.15 84 1013.8
20200329183217 52 182 4.0 0.0 0.00 0.00 0.15 85 1013.8
20200329182216 52 227 0.0 0.0 0.00 0.00 0.15 87 1013.8
20200329181215 51 172 0.0 0.0 0.00 0.00 0.15 88 1013.7
20200329180214 51 252 0.0 0.0 0.00 0.00 0.15 90 1013.8
20200329175213 50 165 0.0 0.0 0.00 0.00 0.15 91 1013.8
20200329174212 50 212 0.0 0.0 0.00 0.00 0.15 92 1013.7
20200329173211 49 230 4.0 0.0 0.00 0.00 0.15 93 1013.7
20200329172210 49 180 0.0 0.0 0.00 0.00 0.15 94 1013.7
20200329171209 49 206 0.0 0.0 0.00 0.00 0.15 94 1013.6
20200329170208 49 180 0.0 0.0 0.00 0.00 0.15 94 1013.5
20200329165207 49 180 4.0 0.0 0.00 0.00 0.15 95 1013.6
20200329164206 48 209 0.0 0.0 0.00 0.00 0.15 95 1013.6
20200329163204 48 213 4.0 0.0 0.00 0.00 0.15 95 1013.6
20200329162204 48 179 9.0 0.0 0.00 0.00 0.15 95 1013.5
20200329161202 48 134 5.0 0.0 0.00 0.00 0.15 95 1013.4
20200329160202 48 177 0.0 0.0 0.00 0.00 0.15 95 1013.5
20200329155200 48 209 0.0 0.0 0.00 0.00 0.14 95 1013.5
20200329154159 48 209 0.0 0.0 0.00 0.00 0.14 95 1013.5
20200329153158 48 191 2.0 0.0 0.00 0.00 0.14 95 1013.6
20200329152157 47 161 0.0 0.0 0.00 0.00 0.14 95 1013.4
20200329151156 47 161 0.0 0.0 0.00 0.00 0.14 95 1013.3
20200329150156 47 204 0.0 0.0 0.00 0.00 0.14 95 1013.2
20200329145155 48 201 1.0 0.0 0.00 0.00 0.14 95 1013.1
20200329144154 48 200 1.0 0.0 0.00 0.00 0.14 95 1013.2
20200329143153 48 221 0.0 0.0 0.00 0.00 0.14 95 1013.1
20200329142151 48 195 10.0 0.0 0.00 0.00 0.14 95 1013.1
20200329141150 48 184 3.0 0.0 0.00 0.00 0.14 95 1013.0
20200329140149 48 204 0.0 0.0 0.00 0.00 0.14 95 1012.9
20200329135148 48 200 3.0 0.0 0.00 0.00 0.14 95 1012.8
20200329134148 48 159 0.0 0.0 0.00 0.00 0.14 94 1012.8
20200329133146 48 176 0.0 0.0 0.00 0.00 0.14 94 1012.9
20200329132145 48 176 0.0 0.0 0.00 0.00 0.14 94 1012.8
20200329131144 48 176 0.0 0.0 0.00 0.00 0.13 94 1012.8
20200329130143 48 176 0.0 0.0 0.00 0.00 0.13 94 1012.9
20200329125142 48 151 0.0 0.0 0.00 0.00 0.13 94 1012.8
20200329124141 48 151 0.0 0.0 0.00 0.00 0.12 94 1012.9
20200329123140 48 215 2.0 0.0 0.00 0.00 0.10 94 1013.0
20200329122139 48 196 5.0 0.0 0.00 0.00 0.07 94 1012.9
20200329121138 48 167 0.0 0.0 0.00 0.00 0.07 94 1012.8
20200329120138 48 209 4.0 0.0 0.00 0.00 0.07 94 1012.7
20200329115136 48 196 0.0 0.0 0.00 0.00 0.06 93 1012.7
20200329114135 48 188 2.0 0.0 0.00 0.00 0.06 93 1012.6
20200329113134 48 175 4.0 0.0 0.00 0.00 0.05 93 1012.7
20200329112133 48 179 0.0 0.0 0.00 0.00 0.05 93 1012.7
20200329111132 48 158 5.0 0.0 0.00 0.00 0.04 93 1012.7
20200329110131 48 190 0.0 0.0 0.00 0.00 0.03 92 1012.7
20200329105131 48 155 5.0 0.0 0.00 0.00 0.03 92 1012.7
20200329104129 48 205 0.0 0.0 0.00 0.00 0.02 92 1012.7
20200329103128 48 217 0.0 0.0 0.00 0.00 0.02 91 1012.8
20200329102127 48 171 5.0 0.0 0.00 0.00 0.01 91 1012.8
20200329101126 49 145 2.0 0.0 0.00 0.00 0.01 90 1012.8
20200329100125 49 152 0.0 0.0 0.00 0.00 0.01 89 1012.8
20200329095124 49 205 0.0 0.0 0.00 0.00 0.00 89 1012.8
20200329094123 49 167 0.0 0.0 0.00 0.00 0.00 88 1012.9
20200329093122 49 138 4.0 0.0 0.00 0.00 0.00 87 1012.9
20200329092121 49 108 0.0 0.0 0.00 0.00 0.00 86 1013.0
20200329091120 49 158 0.0 0.0 0.00 0.00 0.00 86 1013.2
20200329090119 49 167 4.0 0.0 0.00 0.00 0.00 86 1013.2
20200329085118 49 144 4.0 0.0 0.00 0.00 0.00 86 1013.3
20200329084117 49 200 0.0 0.0 0.00 0.00 0.00 86 1013.3
20200329083116 49 170 0.0 0.0 0.00 0.00 0.00 86 1013.3
20200329082115 49 165 0.0 0.0 0.00 0.00 0.00 87 1013.4
20200329081114 49 143 0.0 0.0 0.00 0.00 0.00 87 1013.5
20200329080113 49 161 0.0 0.0 0.00 0.00 0.00 87 1013.6
20200329075112 49 147 0.0 0.0 0.00 0.00 0.00 87 1013.5
20200329074111 49 183 4.0 0.0 0.00 0.00 0.00 87 1013.5
20200329073110 49 154 2.0 0.0 0.00 0.00 0.00 87 1013.6
20200329072109 49 122 0.0 0.0 0.00 0.00 0.00 87 1013.7
20200329071108 49 122 0.0 0.0 0.00 0.00 0.00 87 1013.7
20200329070107 49 134 4.0 0.0 0.00 0.00 0.00 88 1013.7
20200329065106 49 164 0.0 0.0 0.00 0.00 0.04 88 1013.9
20200329064105 49 162 5.0 0.0 0.00 0.00 0.04 88 1013.9
20200329063104 49 143 0.0 0.0 0.00 0.00 0.04 88 1013.9
20200329062103 50 144 0.0 0.0 0.00 0.00 0.04 88 1014.0
20200329061102 50 167 0.0 0.0 0.00 0.00 0.04 89 1014.1
20200329060101 50 168 0.0 0.0 0.00 0.00 0.04 89 1014.1
20200329055100 50 145 0.0 0.0 0.00 0.00 0.04 89 1014.1
20200329054059 50 159 2.0 0.0 0.00 0.00 0.04 89 1014.2
20200329053058 50 146 0.0 0.0 0.00 0.00 0.04 89 1014.2
20200329052057 50 150 4.0 0.0 0.00 0.00 0.04 89 1014.3
20200329051056 50 137 0.0 0.0 0.00 0.00 0.04 89 1014.3
20200329050055 50 133 0.0 0.0 0.00 0.00 0.04 89 1014.3
20200329045054 50 194 0.0 0.0 0.00 0.00 0.04 89 1014.3
20200329044053 50 141 1.0 0.0 0.00 0.00 0.04 89 1014.3
20200329043052 50 189 6.0 0.0 0.00 0.00 0.04 88 1014.3
20200329042051 50 185 2.0 0.0 0.00 0.00 0.04 88 1014.3
20200329041050 51 165 5.0 0.0 0.00 0.00 0.04 88 1014.3
20200329040049 51 120 0.0 0.0 0.00 0.00 0.04 88 1014.3
20200329035048 51 140 0.0 0.0 0.00 0.00 0.04 87 1014.3
20200329034047 51 142 0.0 0.0 0.00 0.00 0.04 87 1014.3
20200329033046 51 119 0.0 0.0 0.00 0.00 0.04 87 1014.3
20200329032044 51 206 0.0 0.0 0.00 0.00 0.04 87 1014.2
20200329031043 52 184 4.0 0.0 0.00 0.00 0.04 86 1014.2
20200329030042 52 169 1.0 0.0 0.00 0.00 0.04 86 1014.2
20200329025041 52 198 1.0 0.0 0.00 0.00 0.04 85 1014.2
20200329024041 52 169 0.0 0.0 0.00 0.00 0.04 85 1014.3
20200329023040 52 183 6.0 0.0 0.00 0.00 0.04 85 1014.3
20200329022039 52 137 0.0 0.0 0.00 0.00 0.04 86 1014.3
20200329021037 52 201 3.0 0.0 0.00 0.00 0.04 85 1014.4
20200329020036 52 196 2.0 0.0 0.00 0.00 0.04 85 1014.4
20200329015035 52 221 1.0 0.0 0.00 0.00 0.04 85 1014.5
20200329014034 52 177 0.0 0.0 0.00 0.00 0.04 85 1014.5
20200329013033 52 160 0.0 0.0 0.00 0.00 0.04 85 1014.5
20200329012032 52 149 0.0 0.0 0.00 0.00 0.04 85 1014.7
20200329011031 52 197 0.0 0.0 0.00 0.00 0.04 84 1014.8